FW3958 Weather Reports


Display with metric or nautical units.
time (UTC)temp
F
wind
direction
speed
MPH
gust
MPH
rain 1hr
in
rain 24hr
in
rain mn
in
humidity
%
barometer
mb
20260503040010 53 178 1.0 4.0 0.00 0.00 0.00 98 1015.5
20260503034510 54 181 1.0 3.0 0.00 0.00 0.00 97 1015.1
20260503033010 54 182 3.0 7.0 0.00 0.00 0.00 96 1015.0
20260503031510 55 179 0.0 3.0 0.00 0.00 0.00 94 1014.8
20260503030108 56 184 3.0 6.0 0.00 0.00 0.00 93 1014.9
20260503024509 58 183 3.0 7.0 0.00 0.00 0.00 91 1014.9
20260503023024 59 169 3.0 7.0 0.00 0.00 0.00 90 1014.7
20260503021507 59 211 2.0 6.0 0.00 0.00 0.00 89 1014.7
20260503020006 60 205 2.0 5.0 0.00 0.00 0.00 88 1014.8
20260503014507 61 176 3.0 8.0 0.00 0.00 0.00 87 1014.9
20260503013114 61 218 3.0 8.0 0.00 0.00 0.00 88 1014.9
20260503011506 62 202 4.0 7.0 0.00 0.00 0.00 86 1015.0
20260503010002 62 218 4.0 8.0 0.00 0.00 0.00 86 1015.0
20260503004600 63 230 5.0 9.0 0.00 0.00 0.00 85 1015.2
20260503003106 64 209 5.0 9.0 0.00 0.00 0.00 83 1015.2
20260503001600 63 284 2.0 5.0 0.00 0.00 0.00 84 1015.2
20260503000109 63 299 3.0 6.0 0.00 0.00 0.00 84 1015.2
20260502234555 64 326 2.0 7.0 0.00 0.00 0.00 82 1015.3
20260502233059 65 257 3.0 7.0 0.00 0.00 0.00 82 1015.4
20260502231552 64 326 3.0 8.0 0.00 0.00 0.00 84 1015.5
20260502230051 66 319 4.0 8.0 0.00 0.00 0.00 80 1015.5
20260502224547 65 9 5.0 8.0 0.00 0.00 0.00 84 1015.6
20260502223044 64 9 2.0 7.0 0.00 0.00 0.00 85 1015.6
20260502221540 63 22 3.0 8.0 0.00 0.00 0.00 84 1016.1
20260502220039 62 29 8.0 12.0 0.00 0.00 0.00 86 1016.2
20260502214537 62 21 8.0 12.0 0.00 0.00 0.00 86 1016.4
20260502213036 62 6 6.0 12.0 0.00 0.00 0.00 86 1016.4
20260502211541 61 16 7.0 13.0 0.00 0.00 0.00 84 1016.5
20260502210033 62 335 6.0 12.0 0.00 0.00 0.00 87 1016.6
20260502204532 62 315 7.0 10.0 0.00 0.00 0.00 84 1016.8
20260502203031 63 355 4.0 9.0 0.00 0.00 0.00 84 1016.7
20260502201529 62 353 6.0 10.0 0.00 0.00 0.00 84 1016.8
20260502200032 61 335 4.0 10.0 0.00 0.00 0.00 84 1017.0
20260502194521 61 352 2.0 5.0 0.00 0.00 0.00 85 1017.4
20260502193019 60 21 2.0 7.0 0.00 0.00 0.00 87 1017.6
20260502191520 59 343 2.0 6.0 0.00 0.00 0.00 88 1017.8
20260502190012 58 300 3.0 6.0 0.00 0.00 0.00 87 1018.0
20260502184513 57 291 1.0 7.0 0.00 0.00 0.00 90 1018.2
20260502183006 56 288 2.0 6.0 0.00 0.00 0.00 90 1018.6
20260502181504 56 297 1.0 5.0 0.00 0.00 0.00 92 1018.6
20260502163059 53 16 0.0 0.0 0.00 0.00 0.00 96 1018.9
20260502161554 52 3 0.0 1.0 0.00 0.00 0.00 97 1018.7
20260502151548 51 289 0.0 0.0 0.00 0.00 0.00 99 1019.1
20260502123043 50 295 0.0 0.0 0.00 0.00 0.00 99 1019.2
20260502121528 50 295 0.0 0.0 0.00 0.00 0.00 99 1019.2
20260502114526 50 295 0.0 0.0 0.00 0.00 0.00 99 1019.1
20260502113025 50 295 0.0 0.0 0.00 0.00 0.00 99 1019.4
20260502111526 50 284 0.0 0.0 0.00 0.00 0.00 99 1019.6
20260502110026 50 284 0.0 0.0 0.00 0.00 0.00 99 1019.6
20260502104619 50 284 0.0 0.0 0.00 0.00 0.00 99 1019.8
20260502103019 50 284 0.0 0.0 0.00 0.00 0.00 99 1020.1
20260502101518 50 284 0.0 0.0 0.00 0.00 0.00 99 1020.1
20260502091513 51 288 0.0 0.0 0.00 0.00 0.00 99 1020.5
20260502071504 51 287 0.0 0.0 0.00 0.00 0.00 98 1021.1
20260502070003 51 288 0.0 0.0 0.00 0.00 0.00 98 1020.9
20260502064507 51 288 0.0 0.0 0.00 0.00 0.00 97 1021.0
20260502063007 51 288 0.0 0.0 0.00 0.00 0.00 98 1021.0
20260502061502 51 288 0.0 0.0 0.00 0.00 0.00 97 1020.8
20260502060201 51 288 0.0 0.0 0.00 0.00 0.00 97 1020.7
20260502054608 51 290 0.0 1.0 0.00 0.00 0.00 97 1020.8
20260502053104 51 290 0.0 1.0 0.00 0.00 0.00 96 1020.6
20260502051559 51 286 0.0 3.0 0.00 0.00 0.00 96 1020.8
20260502050158 51 279 0.0 2.0 0.00 0.00 0.00 96 1020.9
20260502044557 51 284 0.0 2.0 0.00 0.00 0.00 96 1021.1
20260502043059 51 284 1.0 4.0 0.00 0.00 0.00 96 1021.0
20260502041558 51 290 1.0 4.0 0.00 0.00 0.00 96 1020.8